Find Starlink 32430

NORAD ID: 62207 Int'l Des: 2024-229 Owner: SPXS Country: US Constellation: starlink operational
LEOCIRCULAR

当前视图

正在加载3D地球...

About Starlink 32430

Starlink 32430 (NORAD 62207) is a starlink constellation satellite (v2 mini) launched Dec 4, 2024 by SPXS of US. It operates in LEO, CIRCULAR orbit with a mass of 730.00 kg.

关于 Starlink 32430

正在加载描述...

即将过境

Passes for default location (London). Set your location on the main map for personalized predictions.

高度历史

Loading altitude history...

两行轨道根数

1 62207U 24229R 26167.45092522 .00020537 00000-0 75363-3 0 9991
2 62207 43.0084 69.6786 0002030 268.0564 92.0055 15.27584474 85704
Epoch: Jun 16, 2026 • Age: 11 hours

当前状态

高度 487.6 km
速度 7.62 km/s
星下点 -22.95°S, 170.29°E
发射日期 Dec 4, 2024
运行时间 1.5 years
类型 internet

技术详情

分类 Payload
质量 730.00 kg
干质量 700.00 kg
总质量 730.00 kg
长度 0.30 m
直径 4.10 m
跨度 29.00 m
形状 Box + pan
制造商 SPXS
平台类型 Starlink V2M
阶段状态 In Orbit
所有者/国家 SPXS/US

Most Searched